| time (UTC) | temp F | wind direction | speed MPH | gust MPH | rain 1hr in | rain 24hr in | rain mn in | humidity % | barometer mb |
| 20260507144559 | 56 | 303 | 4.0 | 10.0 | 0.00 | 0.00 | 0.00 | 68 | 1015.0 |
| 20260507143059 | 57 | 276 | 3.0 | 8.0 | 0.00 | 0.00 | 0.00 | 70 | 1015.1 |
| 20260507141610 | 58 | 327 | 2.0 | 7.0 | 0.00 | 0.00 | 0.00 | 65 | 1015.3 |
| 20260507140057 | 58 | 262 | 3.0 | 8.0 | 0.00 | 0.00 | 0.00 | 66 | 1015.3 |
| 20260507134553 | 58 | 257 | 1.0 | 10.0 | 0.00 | 0.00 | 0.00 | 67 | 1015.3 |
| 20260507133054 | 57 | 285 | 2.0 | 6.0 | 0.00 | 0.00 | 0.00 | 68 | 1015.3 |
| 20260507131557 | 57 | 285 | 3.0 | 8.0 | 0.00 | 0.00 | 0.00 | 66 | 1015.3 |
| 20260507130052 | 57 | 306 | 2.0 | 7.0 | 0.00 | 0.00 | 0.00 | 66 | 1015.4 |
| 20260507124554 | 56 | 289 | 3.0 | 7.0 | 0.00 | 0.00 | 0.00 | 69 | 1015.3 |
| 20260507123051 | 57 | 259 | 3.0 | 9.0 | 0.00 | 0.00 | 0.00 | 69 | 1015.6 |
| 20260507121550 | 57 | 233 | 3.0 | 10.0 | 0.00 | 0.00 | 0.00 | 68 | 1015.6 |
| 20260507120050 | 57 | 281 | 2.0 | 8.0 | 0.00 | 0.00 | 0.00 | 66 | 1015.6 |
| 20260507114557 | 57 | 254 | 3.0 | 7.0 | 0.00 | 0.00 | 0.00 | 72 | 1015.6 |
| 20260507113044 | 56 | 240 | 1.0 | 9.0 | 0.00 | 0.00 | 0.00 | 72 | 1015.5 |
| 20260507111558 | 56 | 177 | 3.0 | 8.0 | 0.00 | 0.00 | 0.00 | 73 | 1015.5 |
| 20260507110050 | 56 | 283 | 3.0 | 8.0 | 0.00 | 0.00 | 0.00 | 76 | 1015.5 |
| 20260507104551 | 57 | 295 | 4.0 | 9.0 | 0.00 | 0.00 | 0.00 | 81 | 1015.6 |
| 20260507103045 | 56 | 214 | 1.0 | 7.0 | 0.00 | 0.00 | 0.00 | 80 | 1015.5 |
| 20260507101601 | 55 | 302 | 3.0 | 8.0 | 0.00 | 0.00 | 0.00 | 80 | 1015.5 |
| 20260507100047 | 55 | 257 | 2.0 | 8.0 | 0.00 | 0.00 | 0.00 | 81 | 1015.6 |
| 20260507094545 | 55 | 257 | 3.0 | 6.0 | 0.00 | 0.00 | 0.00 | 84 | 1015.4 |
| 20260507093048 | 55 | 354 | 2.0 | 7.0 | 0.00 | 0.00 | 0.00 | 84 | 1015.3 |
| 20260507091548 | 54 | 300 | 2.0 | 7.0 | 0.00 | 0.00 | 0.00 | 87 | 1015.4 |
| 20260507090048 | 53 | 186 | 1.0 | 4.0 | 0.00 | 0.00 | 0.00 | 91 | 1015.3 |
| 20260507084547 | 52 | 265 | 2.0 | 5.0 | 0.00 | 0.02 | 0.00 | 92 | 1015.4 |
| 20260507083047 | 51 | 297 | 0.0 | 3.0 | 0.00 | 0.02 | 0.00 | 92 | 1015.5 |
| 20260507081550 | 51 | 276 | 1.0 | 3.0 | 0.00 | 0.02 | 0.00 | 92 | 1015.4 |
| 20260507080050 | 50 | 292 | 0.0 | 4.0 | 0.00 | 0.02 | 0.00 | 91 | 1015.4 |
| 20260507074555 | 50 | 267 | 0.0 | 3.0 | 0.00 | 0.03 | 0.00 | 93 | 1015.4 |
| 20260507073048 | 49 | 316 | 0.0 | 2.0 | 0.00 | 0.03 | 0.00 | 93 | 1015.3 |
| 20260507071546 | 49 | 294 | 0.0 | 2.0 | 0.00 | 0.03 | 0.00 | 94 | 1015.1 |
| 20260507070049 | 48 | 332 | 0.0 | 1.0 | 0.00 | 0.03 | 0.00 | 94 | 1015.0 |
| 20260507064602 | 47 | 0 | 0.0 | 2.0 | 0.00 | 0.03 | 0.00 | 94 | 1014.9 |
| 20260507063053 | 47 | 0 | 0.0 | 0.0 | 0.00 | 0.03 | 0.00 | 95 | 1014.8 |
| 20260507061546 | 46 | 0 | 0.0 | 0.0 | 0.00 | 0.03 | 0.00 | 95 | 1014.8 |
| 20260507060051 | 45 | 0 | 0.0 | 0.0 | 0.00 | 0.03 | 0.00 | 95 | 1014.7 |
| 20260507054545 | 45 | 0 | 0.0 | 0.0 | 0.00 | 0.03 | 0.00 | 95 | 1014.7 |
| 20260507053055 | 45 | 0 | 0.0 | 0.0 | 0.00 | 0.03 | 0.00 | 95 | 1014.7 |
| 20260507051551 | 44 | 0 | 0.0 | 0.0 | 0.00 | 0.03 | 0.00 | 95 | 1014.7 |
| 20260507050053 | 44 | 0 | 0.0 | 0.0 | 0.00 | 0.03 | 0.00 | 95 | 1014.7 |
| 20260507044547 | 44 | 0 | 0.0 | 0.0 | 0.00 | 0.03 | 0.00 | 94 | 1014.8 |
| 20260507043059 | 44 | 0 | 0.0 | 0.0 | 0.00 | 0.03 | 0.00 | 94 | 1014.6 |
| 20260507041553 | 44 | 0 | 0.0 | 0.0 | 0.00 | 0.03 | 0.00 | 94 | 1014.5 |
| 20260507040056 | 44 | 0 | 0.0 | 0.0 | 0.00 | 0.03 | 0.00 | 93 | 1014.5 |
| 20260507034555 | 44 | 0 | 0.0 | 0.0 | 0.00 | 0.03 | 0.00 | 93 | 1014.5 |
| 20260507033050 | 44 | 0 | 0.0 | 0.0 | 0.00 | 0.03 | 0.00 | 92 | 1014.4 |
| 20260507031552 | 44 | 0 | 0.0 | 0.0 | 0.00 | 0.03 | 0.00 | 91 | 1014.3 |
| 20260507030049 | 45 | 0 | 0.0 | 1.0 | 0.00 | 0.03 | 0.00 | 90 | 1014.2 |
| 20260507024551 | 46 | 0 | 0.0 | 1.0 | 0.00 | 0.03 | 0.00 | 90 | 1014.3 |
| 20260507023108 | 45 | 0 | 0.0 | 0.0 | 0.00 | 0.03 | 0.00 | 89 | 1014.3 |
| 20260507021554 | 46 | 0 | 0.0 | 0.0 | 0.00 | 0.03 | 0.00 | 89 | 1014.2 |
| 20260507020047 | 46 | 0 | 0.0 | 0.0 | 0.00 | 0.03 | 0.00 | 89 | 1014.2 |
| 20260507014558 | 47 | 0 | 0.0 | 0.0 | 0.00 | 0.03 | 0.00 | 88 | 1014.2 |
| 20260507013108 | 47 | 0 | 0.0 | 0.0 | 0.00 | 0.03 | 0.00 | 89 | 1014.3 |
| 20260507011545 | 47 | 0 | 0.0 | 0.0 | 0.00 | 0.03 | 0.00 | 89 | 1014.3 |
| 20260507010044 | 47 | 0 | 0.0 | 0.0 | 0.00 | 0.03 | 0.00 | 88 | 1014.3 |
| 20260507004542 | 47 | 0 | 0.0 | 0.0 | 0.00 | 0.03 | 0.00 | 88 | 1014.5 |
| 20260507003047 | 47 | 0 | 0.0 | 0.0 | 0.00 | 0.03 | 0.00 | 88 | 1014.4 |
| 20260507001607 | 47 | 0 | 0.0 | 0.0 | 0.00 | 0.03 | 0.00 | 88 | 1014.5 |
| 20260507000049 | 47 | 0 | 0.0 | 0.0 | 0.00 | 0.03 | 0.00 | 88 | 1014.7 |
| 20260506234546 | 47 | 0 | 0.0 | 0.0 | 0.00 | 0.03 | 0.00 | 88 | 1014.6 |
| 20260506233047 | 47 | 0 | 0.0 | 1.0 | 0.00 | 0.03 | 0.00 | 88 | 1014.5 |
| 20260506231551 | 48 | 0 | 0.0 | 0.0 | 0.00 | 0.03 | 0.00 | 88 | 1014.6 |
| 20260506230051 | 48 | 0 | 0.0 | 0.0 | 0.00 | 0.03 | 0.00 | 89 | 1014.6 |
| 20260506224550 | 48 | 0 | 0.0 | 0.0 | 0.00 | 0.03 | 0.03 | 88 | 1014.7 |
| 20260506223104 | 48 | 0 | 0.0 | 0.0 | 0.00 | 0.03 | 0.03 | 88 | 1014.6 |
| 20260506221545 | 48 | 0 | 0.0 | 0.0 | 0.00 | 0.03 | 0.03 | 87 | 1014.6 |
| 20260506220045 | 48 | 0 | 0.0 | 0.0 | 0.00 | 0.03 | 0.03 | 88 | 1014.5 |
| 20260506214544 | 48 | 0 | 0.0 | 0.0 | 0.00 | 0.03 | 0.03 | 87 | 1014.5 |
| 20260506213049 | 49 | 0 | 0.0 | 0.0 | 0.00 | 0.03 | 0.03 | 86 | 1014.5 |
| 20260506211547 | 49 | 0 | 0.0 | 0.0 | 0.00 | 0.03 | 0.03 | 86 | 1014.6 |
| 20260506210047 | 49 | 0 | 0.0 | 0.0 | 0.00 | 0.03 | 0.03 | 86 | 1014.5 |
| 20260506204552 | 49 | 0 | 0.0 | 0.0 | 0.00 | 0.03 | 0.03 | 85 | 1014.4 |
| 20260506203050 | 49 | 0 | 0.0 | 0.0 | 0.00 | 0.03 | 0.03 | 84 | 1014.4 |
| 20260506201545 | 50 | 0 | 0.0 | 1.0 | 0.00 | 0.03 | 0.03 | 84 | 1014.3 |
| 20260506200130 | 50 | 0 | 0.0 | 1.0 | 0.00 | 0.03 | 0.03 | 85 | 1014.2 |
| 20260506194555 | 50 | 0 | 0.0 | 1.0 | 0.00 | 0.03 | 0.03 | 84 | 1014.1 |
| 20260506193054 | 50 | 0 | 0.0 | 2.0 | 0.00 | 0.03 | 0.03 | 85 | 1014.0 |
| 20260506191548 | 51 | 239 | 0.0 | 2.0 | 0.00 | 0.03 | 0.03 | 84 | 1014.0 |
| 20260506190045 | 51 | 249 | 0.0 | 4.0 | 0.00 | 0.03 | 0.03 | 83 | 1013.9 |
| 20260506184553 | 52 | 275 | 2.0 | 4.0 | 0.00 | 0.03 | 0.03 | 82 | 1013.9 |
| 20260506183047 | 53 | 217 | 1.0 | 2.0 | 0.00 | 0.03 | 0.03 | 78 | 1013.8 |
| 20260506181552 | 53 | 0 | 0.0 | 0.0 | 0.00 | 0.03 | 0.03 | 74 | 1013.8 |
| 20260506180052 | 53 | 0 | 0.0 | 0.0 | 0.00 | 0.03 | 0.03 | 75 | 1013.7 |
| 20260506174547 | 54 | 0 | 0.0 | 0.0 | 0.00 | 0.03 | 0.03 | 74 | 1013.6 |
| 20260506173048 | 54 | 0 | 0.0 | 2.0 | 0.00 | 0.03 | 0.03 | 72 | 1013.6 |
| 20260506171558 | 55 | 309 | 0.0 | 1.0 | 0.00 | 0.03 | 0.03 | 72 | 1013.5 |
| 20260506170053 | 55 | 308 | 0.0 | 2.0 | 0.00 | 0.03 | 0.03 | 68 | 1013.4 |
| 20260506164549 | 56 | 286 | 0.0 | 3.0 | 0.00 | 0.03 | 0.03 | 71 | 1013.3 |
| 20260506163051 | 56 | 277 | 0.0 | 2.0 | 0.00 | 0.03 | 0.03 | 66 | 1013.4 |
| 20260506161556 | 57 | 0 | 0.0 | 1.0 | 0.00 | 0.03 | 0.03 | 62 | 1013.4 |
| 20260506160046 | 56 | 0 | 0.0 | 1.0 | 0.00 | 0.03 | 0.03 | 63 | 1013.4 |
| 20260506154553 | 56 | 149 | 0.0 | 2.0 | 0.00 | 0.03 | 0.03 | 64 | 1013.6 |
| 20260506153051 | 57 | 65 | 0.0 | 2.0 | 0.00 | 0.03 | 0.03 | 61 | 1013.5 |
| 20260506151547 | 56 | 25 | 0.0 | 2.0 | 0.00 | 0.03 | 0.03 | 65 | 1013.5 |
| 20260506150047 | 56 | 24 | 0.0 | 4.0 | 0.00 | 0.03 | 0.03 | 70 | 1013.6 |